星链-36887(STARLINK-36887)

导读

STARLINK-36887(NORAD编号67950)是SpaceX星链(Starlink)项目低轨互联网通信卫星,属于星链卫星组网的组成部分,承担全球宽带互联网接入服务功能。星链卫星普遍配备相控阵天线与星间激光链路技术,可实现多用户同时连接、低延迟高带宽通信,单星工作寿命约4-5年,后续将由新型号卫星迭代替换。该卫星运行于近地轨道,服务涵盖偏远地区网络覆盖,支撑星链星座整体通信容量与网络冗余性,是SpaceX构建全球低轨卫星互联网的重要节点。

基本信息
目录编号:
67950
目录名称:
STARLINK-36887
国际标识:
2026-037U
轨道中心:
EARTH
卫星名称:
星链-36887
卫星全名:
星链-36887(STARLINK-36887)
卫星状态:
在轨 (已飞行201 天)
发射日期:
2026-02-24 UTC
国别 :
美国 (US)
星等 :
--
该卫星已列入 空间交会检测服务 Space Conjunction Data Service (SCDS) ,当前飞行风险评估等级: 无高风险
轨道信息
数据来源 国际轨道数据
星历时间: 2026-09-13T06:33:22+0800
10小时前
查看轨道信息
半长轴: 6861.177km
偏心率: 0.0001261
轨道倾角: 43.003°
近地点辐角 271.279°
升交点赤经 213.639°
平近点角 88.791°
近地点: 482.174km
远地点: 483.906km
周期: 94.267分钟
每日圈数: 15.275832
详细信息
固有亮度:
5
最大亮度:
2.5
卫星平台:
Starlink V1.0
覆盖范围:
全球
运营商:
太空探索技术公司
运营商所在国:
美国
制造商(研发单位):
太空探索技术公司
制造商所在国:
美国
使用方式:
暂无
卫星简介
Starlink 计划是 SpaceX 推出的全球卫星互联网项目,通过发射低轨道卫星,为全球尤其是偏远地区提供高速、低延迟的互联网服务。自 2019 年起,Starlink 已部署数千颗卫星,旨在缩小全球数字鸿沟,推动互联网普及。该项目还为军事、航空等行业提供通信支持,带来广泛经济效益。
2D轨道图
3D轨道图
轨道高度分析图
轨道倾角分析图
轨道综合分析图
查看轨道综合分析图
交会数据列表
事件ID 空间交会对象 最接近时刻(TCA) 交会距离 交会风险概率(CRP) 交会风险指数(CRI) 操作
CDM_260910-190406-388406-795022
2026-09-10T
19:04:24+0000
2.503 km
极远距离
1.38574E-6 低风险 0.38
与全量物体交会距离演化趋势
与全量物体交会风险概率演化趋势